Home > Weather > Kragerø > Past weeks

Flag for Norway Past Weather in Kragerø, Norway — Yesterday and Last 2 Weeks

Now
60 °F

Cool.


Feels Like: 59 °F
Forecast: 55 / 66 °F
Wind: 7 mph from West

Location: Jomfruland Fyr

Current Time: Jul 28, 2016 at 8:40:20 AM

Latest Report: Jul 28, 2016 at 8:00 AM


Visibility: N/A

Pressure: 29.80 "Hg

Humidity: 76%

Dew Point: 52 °F

Location of KragerøLocation

Past Weather in Kragerø — Graph

°F

Kragerø Temperature Yesterday

Maximum temperature yesterday: 67 °F (at 3:00 PM)
Minimum temperature yesterday: 58 °F (at 5:00 AM)
Average temperature yesterday: 62 °F

High & Low Weather Summary for the Past Weeks

 TemperatureHumidityPressure
High73 °F (Jul 24, 3:00 PM)95% (Jul 19, 4:00 AM)30.15 "Hg (Jul 19, 4:00 AM)
Low54 °F (Jul 17, 6:00 AM)38% (Jul 16, 7:00 PM)29.62 "Hg (Jul 13, 7:00 AM)
Average64 °F80%29.96 "Hg
* Reported Jul 13 7:00 AM — Jul 28 7:00 AM, Kragerø, Weather by CustomWeather, © 2016

Note: Actual official high and low records may vary slightly from our data, if they occured in-between our weather recording intervals... More about our weather records

Advertising

Kragerø Weather History for the Previous 24 Hours

Scroll right to see more
 ConditionsComfort  
Time TempWeatherWind HumidityBarometerVisibility
7:00 AM
Thu, Jul 28
58 °FCool.8 mph79%29.78 "HgN/A
6:00 AM58 °FCool.7 mph82%29.77 "HgN/A
5:00 AM58 °FCool.7 mph86%29.75 "HgN/A
4:00 AM60 °FCool.8 mph89%29.74 "HgN/A
3:00 AM61 °FCool.7 mph88%29.74 "HgN/A
2:00 AM62 °FCool.9 mph85%29.74 "HgN/A
1:00 AM63 °FMild.12 mph89%29.74 "HgN/A
12:00 AM61 °FCool.8 mph91%29.76 "HgN/A
11:00 PM
Wed, Jul 27
62 °FCool.6 mph89%29.78 "HgN/A
10:00 PM62 °FCool.7 mph89%29.80 "HgN/A
9:00 PM63 °FMild.6 mph84%29.82 "HgN/A
8:00 PM64 °FMild.6 mph87%29.83 "HgN/A
7:00 PM64 °FMild.5 mph83%29.85 "HgN/A
6:00 PM65 °FMild.5 mph78%29.87 "HgN/A
5:00 PM65 °FMild.5 mph79%29.89 "HgN/A
4:00 PM65 °FMild.7 mph79%29.91 "HgN/A
3:00 PM67 °FMild.8 mph74%29.92 "HgN/A
2:00 PM65 °FMild.8 mph78%29.94 "HgN/A
1:00 PM64 °FMild.7 mph75%29.95 "HgN/A
12:00 PM64 °FMild.7 mph76%29.96 "HgN/A
11:00 AM60 °FCool.3 mph85%29.98 "HgN/A
10:00 AM63 °FMild.5 mph76%29.97 "HgN/A
9:00 AM63 °FMild.5 mph74%29.97 "HgN/A
8:00 AM61 °FCool.7 mph78%29.97 "HgN/A
Weather by CustomWeather, © 2016

See weather overviewHow to use our weather pages